This demonstration page uses our WeatherBlox Daily Observations layout. Learn more.

Hourly Observations for January 23, 2020

Temp ( °F °C ) Dew Point ( °F °C ) Humidity (%) Winds ( mph kmh ) Pressure ( in mb ) Visibility ( mi km ) Precip ( " mm )
12:10 am 00:10 Cloudy with Light Rain 34 1.1 32 0 92 92 Calm 29.93 1014 4 6.43736 0.01 0.254
12:36 am 00:36 Cloudy with Light Rain 34 1.1 32 0 92 92 Calm 29.93 1014 4 6.43736 0.03 0.762
12:54 am 00:54 Cloudy with Light Rain 34 1.1 32 0 92 92 Calm 29.9 1013 5 8.0467 0.04 1.016
1:47 am 01:47 Cloudy with Light Rain 34 1.1 33 0.6 97 97 Calm 29.93 1014 4 6.43736 0.01 0.254
1:54 am 01:54 Cloudy with Light Rain 34 1.1 33 0.6 97 97 Calm 29.91 1013 4 6.43736 0.01 0.254
2:11 am 02:11 Cloudy with Light Rain 34 1.1 32 0 92 92 Calm 29.93 1014 5 8.0467 0.001 0.001
2:22 am 02:22 Cloudy with Light Rain 34 1.1 33 0.6 97 97 Calm 29.93 1014 6 9.65604 0.001 0.001
2:54 am 02:54 Cloudy with Light Rain 34 1.1 32 0 92 92 Calm 29.91 1013 4 6.43736 0.01 0.254
2:57 am 02:57 Cloudy with Light Rain 34 1.1 33 0.6 97 97 Calm 29.94 1014 4 6.43736 0.001 0.001
3:10 am 03:10 Cloudy with Light Rain 34 1.1 33 0.6 97 97 Calm 29.94 1014 4 6.43736 0.001 0.001
3:20 am 03:20 Cloudy with Light Rain 35 1.7 32 0 89 89 Calm 29.94 1014 5 8.0467 0.001 0.001
3:54 am 03:54 Cloudy with Light Rain 35 1.7 32 0 89 89 WNW 6 9 29.92 1013 4 6.43736 0.02 0.508
4:14 am 04:14 Cloudy with Light Rain 34 1.1 32 0 92 92 NW 7 11 29.93 1014 5 8.0467 0.01 0.254
4:25 am 04:25 Cloudy with Light Rain 34 1.1 32 0 92 92 NW 5 7 29.93 1014 5 8.0467 0.02 0.508
4:33 am 04:33 Cloudy with Light Rain 34 1.1 32 0 92 92 NW 6 9 29.93 1014 5 8.0467 0.02 0.508
4:54 am 04:54 Cloudy with Light Rain 34 1.1 32 0 92 92 NW 6 9 29.91 1013 5 8.0467 0.02 0.508
5:18 am 05:18 Cloudy with Mist and Fog 34 1.1 32 0 92 92 NW 6 9 29.94 1014 5 8.0467 0.001 0.001
5:30 am 05:30 Cloudy with Mist and Fog 34 1.1 32 0 92 92 WNW 6 9 29.94 1014 5 8.0467 0.001 0.001
5:54 am 05:54 Cloudy with Mist and Fog 34 1.1 32 0 92 92 NW 5 7 29.92 1013 5 8.0467 0.001 0.001
6:05 am 06:05 Cloudy with Mist and Fog 34 1.1 32 0 92 92 NNW 6 9 29.94 1014 5 8.0467 0 0
6:54 am 06:54 Cloudy with Light Wintry Mix 34 1.1 32 0 92 92 NNW 7 11 29.92 1013 5 8.0467 0.001 0.001
7:54 am 07:54 Cloudy with Light Snow 34 1.1 32 0 92 92 NW 7 11 29.93 1014 5 8.0467 0.01 0.254
8:20 am 08:20 Cloudy with Light Snow 34 1.1 31 -0.6 89 89 NW 6 9 29.96 1015 2 3.21868 0.01 0.254
8:28 am 08:28 Cloudy with Light Snow 34 1.1 31 -0.6 89 89 NW 7 11 29.97 1015 1.75 2.816345 0.01 0.254
8:54 am 08:54 Cloudy with Light Snow 33 0.6 31 -0.6 92 92 NNW 8 13 29.95 1014 1 1.60934 0.03 0.762
9:39 am 09:39 Cloudy with Snow 33 0.6 31 -0.6 92 92 NNW 8 13 29.99 1015 0.5 0.80467 0.02 0.508
9:54 am 09:54 Cloudy with Snow 33 0.6 31 -0.6 92 92 NNW 9 15 29.96 1015 0.5 0.80467 0.03 0.762
10:01 am 10:01 Cloudy with Snow 33 0.6 31 -0.6 92 92 NNW 9 15 29.99 1015 0.5 0.80467 0.01 0.254
10:08 am 10:08 Cloudy with Snow 33 0.6 31 -0.6 92 92 NNW 9 15 30 1016 0.5 0.80467 0.01 0.254
10:54 am 10:54 Cloudy with Light Snow 33 0.6 31 -0.6 92 92 NNW 9 15 29.97 1015 0.5 0.80467 0.03 0.762
1:05 pm 13:05 Cloudy with Snow 33 0.6 31 -0.6 92 92 NNW 14 22 30 1016 0.5 0.80467 0.001 0.001
1:40 pm 13:40 Cloudy with Light Snow 33 0.6 30 -1.1 89 89 N 17 28 29.99 1015 0.75 1.207005 0.01 0.254
2:23 pm 14:23 Windy with Snow Likely 32 0 29 -1.7 88 88 NNW 21 33 29.99 1016 1 1.60934 0.01 0.254
2:46 pm 14:46 Windy with Snow Likely 32 0 28 -2.2 85 85 N 21 33 30 1016 2 3.21868 0.01 0.254
3:54 pm 15:54 Windy with Snow Likely 31 -0.6 27 -2.8 85 85 N 21 33 29.98 1015 2.5 4.02335 0.001 0.001
4:54 pm 16:54 Windy with Snow Likely 30 -1.1 27 -2.8 88 88 NNW 21 33 30.01 1016 2 3.21868 0.001 0.001
5:39 pm 17:39 Windy with Snow Likely 30 -1.1 26 -3.3 85 85 NNW 20 31 30.04 1017 2 3.21868 0.001 0.001
5:52 pm 17:52 Cloudy with Light Snow 30 -1 27 -3 86 86 NNW 17 28 30.05 1018 4 6.43736 0.001 0.001
5:54 pm 17:54 Cloudy with Light Snow 30 -1.1 26 -3.3 85 85 NNW 18 30 30.02 1017 4 6.43736 0.001 0.001
6:05 pm 18:05 Cloudy with Light Wintry Mix 30 -1.1 26 -3.3 85 85 NNW 18 30 30.05 1018 6 9.65604 0.001 0.001
6:27 pm 18:27 Cloudy with Mist and Fog 30 -1.1 26 -3.3 85 85 NNW 17 28 30.06 1018 2 3.21868 0.001 0.001
6:39 pm 18:39 Cloudy with Mist and Fog 30 -1.1 26 -3.3 85 85 NNW 14 22 30.06 1018 2.5 4.02335 0.001 0.001
6:51 pm 18:51 Cloudy with Light Snow 30 -1 27 -3 86 86 NNW 18 30 30.06 1018 1.75 2.816345 0.001 0.001
6:54 pm 18:54 Windy with Snow Likely 30 -1.1 26 -3.3 85 85 NNW 20 31 30.03 1017 1.75 2.816345 0.001 0.001
7:32 pm 19:32 Cloudy with Light Snow 29 -1.7 26 -3.3 89 89 NNW 18 30 30.08 1019 1.75 2.816345 0.01 0.254
7:42 pm 19:42 Cloudy with Light Snow 29 -1.7 26 -3.3 89 89 NNW 17 28 30.08 1019 2 3.21868 0.01 0.254
7:54 pm 19:54 Cloudy with Light Snow 29 -1.7 26 -3.3 89 89 NNW 17 28 30.04 1017 2.5 4.02335 0.01 0.254
8:54 pm 20:54 Cloudy with Light Snow 29 -1.7 26 -3.3 89 89 NNW 15 24 30.06 1018 3 4.82802 0.01 0.254
9:16 pm 21:16 Cloudy with Light Snow 29 -1.7 25 -3.9 85 85 NNW 16 26 30.09 1019 6 9.65604 0.001 0.001
9:34 pm 21:34 Cloudy with Mist and Fog 29 -1.7 25 -3.9 85 85 NNW 16 26 30.09 1019 6 9.65604 0.001 0.001
9:54 pm 21:54 Cloudy 29 -1.7 25 -3.9 85 85 NNW 15 24 30.06 1018 7 11.26538 0.001 0.001
10:54 pm 22:54 Cloudy 29 -1.7 25 -3.9 85 85 NNW 15 24 30.07 1018 9 14.48406 0 0
11:54 pm 23:54 Cloudy 29 -1.7 25 -3.9 85 85 NNW 15 24 30.07 1018 9 14.48406 0.001 0.001

Powered by AerisWeather